Warning: Javascript must be enabled to use all the features on this page!


Page Loading - Please Wait...

Click to hideNews Bulletins

Peak Streamflow for the Nation

USGS 05064000 WILD RICE RIVER AT HENDRUM, MN

Norman County, Minnesota
Hydrologic Unit Code 09020108
Latitude  47°16'05", Longitude  96°47'50" NAD27
Drainage area 1,560  square miles
Gage datum 837.71 feet above NAVD88
Output formats
Table
Graph
Tab-separated file
peakfq (watstore) format
Reselect output format
Water
Year
Date Gage
Height
(feet)
Stream-
flow
(cfs)
1944 1944-07-15 16.07 2,2605
1945 1945-03-18   2,2001,5
1946 1946-03-23 20.561 2,6001,5
1947 1947-04-15 27.701 4,2001,5
1948 1948-04-08 20.131 2,2001,5
1949 1949-07-11   7381,5
1950 1950-05-10   3,0001,5
1951 1951-04-07 19.182 2,5705
1952 1952-04-11 21.492 2,8605
1953 1953-06-18 16.881 1,6505
1954 1954-04-12 15.26 1,9405
1955 1955-04-05 15.991 1,8505
1956 1956-04-14 24.261 4,6605
1957 1957-09-04 11.702 1,2505
1958 1958-07-07 8.16 6335
1959 1959-04-06 8.921 5405
1960 1960-04-08 16.481 1,6005
1961 1961-05-17 10.66 1,0805
1962 1962-06-13 22.261 3,6805
1963 1963-06-03 13.89 1,6705
1964 1964-04-23 17.55 2,6905
1965 1965-04-14 29.442 6,8005
1966 1966-03-31 28.302 4,1205
1967 1967-04-01 20.572 3,2505
1968 1968-03-29 11.261 7265
1969 1969-04-15 31.42 8,3005
1970 1970-06-20 22.411 3,9405
1971 1971-04-10 13.202 1,5005
1972 1972-04-15 23.242 4,5505
1973 1973-09-06 13.032 1,6305
1974 1974-04-16 26.21 5,5905
1975 1975-07-05 30.912 7,6605
1976 1976-03-30 20.221 2,1205
1977 1977-04-11 5.552 2455
1978 1978-04-10 31.42 9,3505
1979 1979-04-21 32.301 8,8005
1980 1980-04-05 17.361 1,8005
1981 1981-05-24 14.50 1,8405
1982 1982-04-03 22.511 3,2805
1983 1983-07-05 15.122 2,2905
1984 1984-06-11 25.00 5,4005
1985 1985-05-16 25.14 5,2305
1986 1986-03-31 23.10 3,8505
1987 1987-07-25 14.262 1,5005
1988 1988-04-08 11.302 1,1905
1989 1989-04-07 29.601 5,4805
1990 1990-04-01 14.261 1,1005
1991 1991-05-06 10.27 9525
1992 1992-07-03 14.70 1,9505
1993 1993-08-01   3,6701,2,5
1994 1994-04-03 20.302 2,6005
1995 1995-03-17 22.321,2 3,2002,5
1996 1996-04-14 28.821,2 5,7505
1997 1997-04-18 33.851 10,6005
1998 1998-05-19 26.91 6,5505
1999 1999-05-13 20.832 4,0805
2000 2000-06-26 29.56 8,0405
2001 2001-04-10 30.792 9,7205
2002 2002-06-28 26.482 8,6905
2003 2003-06-28 17.84 3,0605
2004 2004-03-29 22.75 4,8005
2005 2004-11-03 21.952 4,4905
2006 2006-04-03 31.932 10,0005
2007 2007-06-20 26.64 4,9905
2008 2008-09-13 18.39 3,3705
2009 2009-03-27 33.002 9,4405
2010 2010-03-17   8,1001,2,5
2011 2011-04-07   7,7001,2,5
2012 2012-03-19 10.96 1,2405
2013 2013-04-30   4,8201,2,5
2014 2014-06-18 18.682 3,3305
2015 2015-05-20 12.161 1,1305
2016 2016-08-31 13.80 1,8805
2017 2017-02-26 21.091 2,5802,5
2018 2018-04-23 17.40 1,2305
2019 2019-04-10 31.95 7,0905
2020 2020-04-04 30.482 6,1105
2021 2021-04-11 9.602 9005
2022 2022-05-03 27.01 5,5505
?
  Peak Gage-Height Qualification Codes.
?
  Peak Streamflow Qualification Codes.